Theta_e
348 348 347 343 341 346 350 351 351 350 347 358 359 357 358 360 360 360 355 347 341 332 325 323 321 321 320 320 319 319 319 320 316 318 319 317 320 320 318 317 316 315 315
349 349 349 348 343 341 346 349 347 344 342 357 360 359 358 360 361 360 355 347 342 334 325 323 322 318 317 318 318 319 319 319 319 316 315 316 319 318 318 318 316 315 315
350 350 350 349 348 342 339 341 341 343 347 349 354 356 358 361 361 359 356 348 341 330 320 319 320 318 316 314 313 313 314 316 316 314 314 315 317 317 317 318 317 315 314
351 351 351 350 350 348 342 342 344 351 353 352 356 358 360 362 362 360 354 348 337 325 322 321 316 312 309 310 310 316 317 317 316 314 314 314 315 316 316 317 318 317 315
352 352 352 352 351 351 350 347 349 354 355 356 358 360 361 361 361 358 353 347 336 323 322 319 308 304 307 312 316 317 317 317 316 315 314 314 315 315 315 315 316 318 313
355 354 354 354 354 354 354 354 354 355 358 358 360 361 362 362 361 358 354 344 331 320 316 308 306 308 311 315 317 317 317 317 316 315 314 313 314 314 314 314 315 316 314
355 356 356 355 356 356 355 356 357 357 359 359 361 362 362 362 362 359 354 343 329 314 307 305 309 310 310 311 314 315 316 316 316 316 315 313 314 313 313 314 314 313 313
355 356 356 356 356 357 357 357 357 358 359 360 361 363 362 361 361 358 353 340 324 310 311 309 310 313 312 312 311 312 315 316 316 316 315 315 314 313 313 313 314 314 314
355 356 356 356 357 358 358 358 357 359 360 361 362 363 362 361 360 358 351 337 318 312 315 316 316 317 317 316 315 313 311 313 315 315 315 315 314 313 314 313 313 313 312
354 354 356 356 357 358 358 358 358 359 360 362 363 363 363 360 359 355 348 335 316 314 318 321 321 319 319 318 316 316 316 313 311 315 316 315 315 313 313 313 312 311 311
353 354 355 356 356 355 356 357 358 360 362 363 362 363 362 361 357 353 350 339 322 316 318 323 322 322 321 320 316 314 316 315 314 314 316 316 315 313 313 312 312 310 310
356 354 355 356 357 357 357 357 359 361 363 363 363 362 362 360 358 353 349 344 328 321 322 322 321 321 321 320 314 315 316 312 314 314 316 316 316 314 312 312 312 310 310
361 356 355 356 358 358 359 359 361 362 363 363 361 360 360 357 355 351 347 339 331 327 323 323 321 320 322 322 319 315 316 312 313 313 315 316 317 317 315 314 313 311 311
354 363 362 360 360 360 360 360 361 363 364 363 361 358 358 356 354 348 342 335 332 328 325 324 318 319 319 317 315 314 315 311 314 316 319 318 317 317 318 317 313 312 311
351 360 364 365 363 362 363 363 363 362 362 364 363 360 357 351 356 355 350 341 334 328 325 320 317 317 311 312 314 315 315 311 313 315 320 319 318 318 318 315 314 315 312
346 352 359 365 365 365 364 364 366 366 365 365 364 362 361 361 359 356 352 344 335 331 324 318 315 314 311 313 315 313 313 312 312 313 320 319 319 317 317 314 313 314 314
344 350 354 363 365 365 364 363 360 365 367 367 366 365 364 361 360 356 350 344 336 331 323 318 314 311 309 313 317 314 314 314 312 312 316 319 317 317 316 313 313 313 314
340 346 350 355 359 363 360 358 358 355 354 357 361 362 363 362 361 358 347 340 332 331 326 324 317 312 309 313 316 312 314 313 311 310 314 320 316 315 316 314 313 312 313
337 341 347 348 353 355 354 350 349 346 342 341 340 339 341 352 355 352 347 342 335 330 327 327 325 319 312 310 316 315 314 314 312 310 312 317 317 316 315 315 313 312 313
338 338 342 344 344 342 342 347 347 344 342 339 339 338 340 335 338 338 335 338 337 335 327 328 328 324 317 312 313 314 317 314 314 311 311 315 319 317 315 315 314 312 313
334 337 337 340 341 339 339 340 338 337 338 340 341 337 339 342 330 332 333 336 337 332 329 330 330 326 322 315 315 316 318 317 314 314 313 313 319 317 315 315 314 312 313
329 331 334 332 332 333 335 337 336 335 335 335 334 335 338 340 334 327 327 329 333 332 332 333 332 329 324 318 316 319 320 319 316 314 314 313 315 317 315 314 314 313 313
322 323 324 325 326 327 329 331 329 328 328 328 332 332 332 332 332 329 328 329 333 331 328 329 327 325 326 329 327 322 321 321 320 315 314 313 314 317 315 314 314 313 313
318 317 317 317 319 319 321 320 319 319 320 318 320 328 333 327 327 329 330 330 330 329 330 332 331 331 332 334 335 332 325 324 322 318 314 313 312 315 315 315 314 313 314
316 315 314 314 314 314 314 314 313 312 315 317 315 313 314 321 322 322 325 330 332 333 332 331 332 332 331 334 335 333 327 325 323 320 315 314 312 310 314 314 315 313 313
314 314 313 312 311 311 310 310 308 308 307 307 309 310 313 312 314 316 320 323 327 329 330 330 329 331 331 331 333 334 328 325 323 323 317 314 313 311 311 311 313 314 313
Wind_Speed
35 34 32 32 30 28 25 22 19 17 13 10 9 8 6 4 4 2 3 8 10 10 9 9 10 9 9 9 10 9 8 3 4 2 2 4 1 3 3 2 0 3 5
37 34 32 30 30 29 29 27 24 22 19 15 10 9 7 4 3 1 6 7 9 9 10 10 11 9 13 12 12 13 12 9 4 2 2 2 2 1 3 4 4 2 1
35 34 32 29 29 30 28 26 24 22 19 19 17 14 9 6 4 2 6 8 9 9 10 10 10 8 11 12 14 14 13 12 10 5 3 1 0 1 2 5 5 6 3
35 34 34 31 29 29 28 26 24 22 20 17 14 11 8 6 5 6 10 9 10 10 10 10 10 10 11 12 15 15 15 16 15 12 7 4 2 4 5 6 6 6 5
34 33 35 33 30 28 26 26 24 22 21 18 14 12 9 6 7 10 12 11 11 12 12 12 13 16 18 18 18 19 20 21 20 18 14 9 9 9 11 9 5 1 6
31 35 35 32 31 29 27 24 22 23 22 19 15 13 10 8 9 12 12 13 13 13 16 16 18 19 20 20 20 19 20 22 22 21 18 12 16 14 13 13 6 1 2
31 30 30 30 30 30 27 24 22 23 22 21 16 14 11 9 10 12 12 14 15 15 17 19 20 17 17 17 15 14 16 18 21 22 21 18 14 16 13 7 8 9 7
32 30 30 30 30 30 27 25 24 23 24 22 17 14 12 10 11 14 14 15 16 17 17 17 17 16 13 11 10 8 8 11 16 19 20 18 17 17 12 6 2 3 5
28 30 32 32 30 29 27 28 26 25 25 22 17 15 13 10 14 15 16 18 19 20 18 16 15 14 12 9 6 5 3 3 6 10 15 18 20 22 20 13 12 4 4
30 34 34 33 32 31 28 28 27 26 25 21 16 15 15 15 19 17 18 20 22 22 19 16 14 12 11 9 6 4 2 1 1 3 9 17 20 22 22 21 17 13 6
20 27 30 33 35 33 29 28 27 25 23 18 15 15 16 19 23 22 20 20 23 24 21 19 15 14 11 10 6 4 3 0 4 3 3 12 18 24 28 23 22 23 15
14 20 26 30 30 29 29 28 27 24 22 18 16 16 18 20 23 26 23 18 20 23 22 19 16 14 11 10 8 4 2 4 2 2 3 4 11 17 24 28 24 23 23
8 21 22 23 25 24 26 26 24 23 22 20 18 19 20 20 24 25 24 19 18 19 18 18 17 15 12 11 8 5 3 6 3 1 1 3 3 7 12 18 23 24 22
4 11 14 15 19 22 22 24 24 23 23 21 17 19 24 23 24 28 25 20 18 16 16 18 17 15 12 11 11 8 7 7 4 2 4 4 3 4 8 11 15 21 25
14 7 7 9 16 21 21 23 24 27 29 25 24 25 27 26 30 30 31 28 25 20 20 20 19 16 14 15 10 8 11 10 7 3 4 5 4 6 11 11 14 20 20
17 12 6 6 14 22 25 22 24 25 25 24 26 27 27 26 26 27 31 29 27 24 25 25 23 20 18 17 12 10 10 11 9 7 5 7 8 7 13 13 17 21 20
16 15 11 2 5 16 19 22 19 21 22 22 22 23 22 22 25 26 34 30 27 25 25 25 24 22 21 19 15 13 11 11 10 11 8 8 9 10 12 17 18 19 19
14 9 7 6 2 2 2 3 1 1 4 7 16 23 24 21 20 22 36 30 29 26 27 25 26 23 22 22 18 16 12 12 12 12 12 11 11 11 11 15 15 15 19
17 12 9 8 17 14 15 21 19 14 14 19 25 32 11 13 17 24 37 33 34 33 31 28 25 23 22 22 21 17 16 16 14 15 15 14 13 11 12 12 14 13 17
15 16 13 17 28 7 13 18 13 17 14 8 17 22 26 8 16 26 33 28 32 31 27 26 21 21 21 22 22 21 19 19 18 17 15 17 17 13 13 15 14 16 19
12 17 14 12 15 9 8 12 21 23 16 15 26 35 24 13 13 25 32 27 30 28 25 17 17 18 19 21 21 22 22 22 22 20 18 19 22 18 15 14 17 17 22
12 11 11 14 18 15 9 12 6 4 20 20 15 11 13 22 17 20 23 17 18 20 17 15 13 16 17 19 22 24 24 25 26 24 21 21 24 24 19 19 19 21 21
17 16 14 16 20 14 16 12 10 10 17 20 15 21 16 9 11 14 13 15 12 9 10 12 13 14 15 14 20 24 25 26 28 28 24 24 27 28 26 23 23 23 22
23 25 22 20 23 24 22 20 22 22 25 23 15 21 21 15 14 12 13 12 9 8 7 9 12 14 16 15 15 19 25 24 27 31 28 28 29 30 30 27 25 24 23
25 28 26 23 23 22 23 25 24 26 28 25 24 24 21 22 17 14 13 13 11 9 7 4 9 12 12 9 11 13 22 24 22 29 32 31 31 32 34 31 30 28 26
27 25 27 26 26 25 24 25 27 28 28 28 28 26 25 23 21 18 16 15 17 17 15 11 6 3 8 16 13 10 12 21 21 18 30 33 34 34 36 34 33 33 32
Wind_Direction
215 214 217 220 223 226 231 240 248 258 269 275 284 307 333 350 6 343 129 129 115 117 110 108 96 82 69 60 60 56 52 82 110 121 67 23 97 131 156 186 118 20 28
219 218 217 221 223 225 231 240 248 257 261 261 277 293 307 312 337 253 158 143 126 120 113 106 97 79 68 66 62 71 74 66 72 144 320 347 92 133 254 256 236 257 16
216 218 219 218 223 226 230 237 243 248 252 256 268 278 284 285 281 213 180 149 138 122 119 108 100 87 83 82 77 71 64 58 50 45 20 9 209 320 299 312 266 242 241
213 215 220 217 222 227 229 232 239 243 250 255 266 272 272 276 228 205 182 161 141 128 122 109 95 89 93 90 80 73 64 54 52 56 53 33 341 326 334 333 297 244 229
206 209 219 221 223 226 229 232 234 241 249 256 261 263 262 252 221 207 184 166 148 135 126 110 99 95 94 91 86 77 65 64 57 54 45 26 13 353 345 334 314 317 165
204 211 216 219 223 224 228 230 231 240 246 250 253 259 253 243 227 225 190 168 152 140 130 120 113 107 104 99 95 83 69 61 60 55 43 23 10 358 345 348 12 51 55
206 211 217 220 223 226 227 226 226 234 241 246 248 250 248 239 229 228 195 174 157 149 140 134 127 120 117 112 101 89 77 68 62 54 50 36 9 5 358 13 64 72 58
204 210 217 221 224 226 223 223 224 231 237 242 243 244 241 231 226 208 187 173 161 155 150 146 140 137 133 126 117 102 92 78 60 51 49 46 38 28 13 7 288 7 21
199 208 216 220 222 223 221 221 222 227 234 239 237 234 231 213 199 198 184 173 167 162 160 159 154 147 147 144 142 132 122 106 67 49 51 48 47 53 54 58 48 31 16
206 214 219 219 220 222 222 222 223 226 231 234 231 227 226 204 196 200 188 180 171 171 172 172 174 167 166 167 173 147 139 264 117 65 57 51 45 48 45 48 53 45 30
214 216 220 222 220 219 219 220 223 224 228 230 223 215 216 209 196 200 194 192 187 180 184 184 182 182 181 179 172 167 84 296 228 186 68 60 54 52 49 50 53 57 50
235 219 219 223 219 219 217 216 219 221 222 218 210 202 209 207 206 198 197 208 201 193 191 190 183 178 183 181 174 178 157 155 175 186 207 90 64 58 56 52 58 65 67
217 208 215 217 221 221 216 214 214 219 218 209 192 190 201 206 204 202 201 207 210 206 196 191 184 184 188 186 188 187 182 173 173 145 41 158 110 76 60 53 52 69 72
15 173 190 200 210 215 218 218 213 212 210 204 191 186 196 205 201 198 199 202 209 202 191 184 186 189 194 194 191 203 203 179 148 91 73 122 127 51 47 55 73 72 75
5 9 174 193 219 215 211 210 218 226 225 205 203 198 191 197 208 204 199 196 197 191 183 184 186 192 193 188 202 199 181 180 161 146 107 117 102 61 83 90 87 89 91
354 3 19 170 221 220 213 209 214 222 225 229 229 223 220 230 219 213 205 199 189 186 186 189 193 195 196 195 194 183 181 189 180 164 145 120 105 95 107 95 104 106 104
355 350 332 310 185 232 220 210 207 216 216 218 218 223 236 235 225 214 206 198 192 186 193 198 205 199 199 201 205 207 198 186 184 170 171 144 122 115 122 112 108 112 110
9 10 343 326 81 72 146 148 73 78 228 218 211 208 218 234 234 216 201 192 184 199 202 205 214 210 205 201 204 205 202 193 185 174 170 171 145 126 138 132 123 112 117
15 17 28 52 103 109 118 97 85 75 92 90 58 8 336 229 215 208 198 194 195 200 206 213 219 217 215 208 205 210 211 207 193 179 175 182 172 145 140 147 135 131 130
21 26 50 61 84 80 102 121 116 117 151 125 66 26 337 268 187 195 191 197 206 213 213 215 218 223 221 216 210 212 214 213 207 197 190 184 187 169 147 155 155 142 141
6 31 45 69 87 79 75 118 144 172 135 164 163 173 212 254 231 205 189 200 213 218 218 223 219 219 222 221 214 212 217 219 217 211 200 189 187 181 160 155 158 155 148
22 23 20 46 68 71 90 117 124 133 131 144 139 145 170 171 214 219 196 202 210 229 235 239 222 219 218 215 218 217 220 223 222 217 211 201 195 187 177 167 167 164 161
48 50 52 50 63 71 78 84 48 39 68 87 102 92 91 117 172 204 189 210 213 219 231 230 229 219 225 237 235 231 228 229 226 219 213 201 193 190 185 179 178 176 176
52 48 47 51 66 70 76 74 69 72 77 67 71 112 119 108 118 143 166 191 186 184 214 238 238 237 243 252 267 242 233 238 236 223 215 208 197 194 192 190 188 189 188
51 54 46 45 53 56 61 67 64 64 71 73 73 71 82 101 99 99 102 118 133 131 147 208 255 252 254 273 277 281 242 233 241 234 218 214 210 202 199 201 200 197 195
63 57 56 54 53 55 56 56 59 60 61 65 72 70 71 66 76 74 80 88 97 102 103 102 96 86 231 239 242 253 232 226 250 256 237 221 215 210 207 208 209 207 202